Notices

What's New in latest Release from April 7th, 2021:

- Updated Glossary, including Speed of Maximum Gust, and Total Hourly Precipitation

- Updated national and regional climate services offices contacts and prices information

- Addition of station inventory lists for 1981-2010, 1971-2000, and 1961-1990 Normals.

If you haven't already, please take our survey and provide feedback about our website: https://eccc.sondage-survey.ca/f/LanguageSelection.aspx?s=442ca660-fcf1-47c0-95a9-59707d6fd709

Hourly Data Report for December 23, 2020

SHEARWATER RCS
NOVA SCOTIA
Current Station Operator: ECCC - MSC

44°37'47.000" N
63°30'48.000" W
24.00 m
8205092
71264
AAW

Download Data

Hourly Data (December 2020)
Hourly Data Report for December 23, 2020
TIME
LST
Temp Definition
°C
Dew Point Definition
°C
Rel Hum Definition
%
Precip. Amount Definition
mm

Wind Dir Definition
10's deg

Wind Spd Definition
km/h
Visibility Definition
km
Stn Press Definition
kPa
Hmdx Definition


Wind Chill Definition


Weather Definition


00:00 1.2 -0.3 90 0.0 25 6   100.20     LegendNANA
01:00 1.3 -0.8 86 0.0 28 11   100.23     LegendNANA
02:00 1.1 -2.0 80 0.0 29 10   100.32     LegendNANA
03:00 0.4 -2.3 82 0.0 29 9   100.43     LegendNANA
04:00 0.7 -2.2 81 0.0 29 10   100.51     LegendNANA
05:00 0.5 -2.5 80 0.0 30 12   100.64     LegendNANA
06:00 0.1 -2.5 83 0.0 31 5   100.76     LegendNANA
07:00 1.1 -1.4 84 0.0 29 8   100.88     LegendNANA
08:00 1.1 -1.4 84 0.0 29 11   101.01     LegendNANA
09:00 0.6 -5.5 64 0.2 31 26   101.19     LegendNANA
10:00 0.4 -5.6 64 0.0 31 23   101.39     LegendNANA
11:00 0.5 -6.9 58 0.0 30 29   101.47     LegendNANA
12:00 -0.1 -6.8 61 0.0 30 23   101.50   -6 LegendNANA
13:00 -0.6 -7.3 61 0.0 31 23   101.63   -6 LegendNANA
14:00 0.0 -7.9 55 0.0 30 22   101.65   -6 LegendNANA
15:00 -0.7 -7.7 59 0.0 32 19   101.79   -6 LegendNANA
16:00 -1.7 -8.1 62 0.0 32 19   101.98   -7 LegendNANA
17:00 -3.1 -8.6 65 0.0 33 17   102.11   -9 LegendNANA
18:00 -3.4 -8.5 68 0.0 33 15   102.27   -9 LegendNANA
19:00 -3.5 -8.3 69 0.0 34 11   102.37   -8 LegendNANA
20:00 -4.2 -8.8 70 0.0 35 14   102.51   -9 LegendNANA
21:00 -5.0 -9.0 73 0.0 36 10   102.62   -9 LegendNANA
22:00 -5.8 -9.8 73 0.0 1 7   102.70   -9 LegendNANA
23:00 -6.5 -10.3 74 0.0 1 5   102.78   -9 LegendNANA

Notes on Data Quality.

Legend

  • E = Estimated
  • M = Missing
  • NA = Not Available*
  • [empty] = Indicates an unobserved value
Date modified: